Farquhar Airport

Jump to: basic info | weather | runways | comments

Related pages: nearby airports | nearby navaids | notams | map

Basic information (top)

Codes: FSFA
Location: lon -10.109600, lat 51.176102, elev 10 ft / 3 m msl
Status: small_airport

Weather (top)

Current conditions for Prince Said Ibrahim International Airport 474nm (878km) W (rec'd 2015/04/28 15:00Z):

FMCH 281500Z 19015KT 9999 FEW020 28/24 Q1011 NOSIG

Airport forecast for Prince Said Ibrahim International Airport 474nm (878km) W (rec'd 2015/04/27 18:00Z):

TAF FMCH 271700Z 2718/2824 10004KT 9999 FEW020TCU SCT030 
      TEMPO 2718/2724 SHRA 
      BECMG 2804/2806 20012KT PROB30 
      TEMPO 2808/2814 SHRA FEW020CB BKN030

Runways (top)

13/31: 3,035 x 75 ft (925 x 23 m) — paved — not lighted

Latest comments (top)

No comments yet for Farquhar Airport

More... (top)

See also NOTAMs and nearby airports and navaids, or visit the Farquhar Airport page at the main OurAirports website..